Weather reports worldwide

Advertisment
Firenze/Peretola, Italy (16170): temperature & dewpoint: 12.07.2019 07:00:00 - 18.07.2019 07:00:00 (CEST)Firenze/Peretola, Italy (16170): wind speed: 12.07.2019 07:00:00 - 18.07.2019 07:00:00 (CEST)Firenze/Peretola, Italy (16170): wind direction: 12.07.2019 07:00:00 - 18.07.2019 07:00:00 (CEST)Firenze/Peretola, Italy (16170): reduced air pressure: 12.07.2019 07:00:00 - 18.07.2019 07:00:00 (CEST)Firenze/Peretola, Italy (16170): visibility: 12.07.2019 07:00:00 - 18.07.2019 07:00:00 (CEST)Firenze/Peretola, Italy (16170): precipitation: 12.07.2019 07:00:00 - 18.07.2019 07:00:00 (CEST)
Date & Time tt [°C] td [°C] ff [km/h] ff [kn] dd ppp [hPa] vv [km] rr [mm]
18.07.2019 07:00:00 18,0 15,0 4 2 - - 10 -
18.07.2019 06:00:00 16,0 15,0 4 2 E - 10 -
18.07.2019 05:00:00 16,5 14,6 2 1 - 1011,8 10 0,0
18.07.2019 04:00:00 18,0 15,0 4 2 ENE - 10 -
18.07.2019 03:00:00 19,0 15,0 9 5 E - 10 -
18.07.2019 02:00:00 18,9 15,5 8 4 E 1012,6 10 -
18.07.2019 01:00:00 20,0 15,0 8 4 E - 10 -
18.07.2019 00:00:00 23,0 16,0 5 3 S - 10 -
17.07.2019 23:00:00 22,7 16,3 2 1 - 1012,1 10 0,0
17.07.2019 22:00:00 25,0 14,0 13 7 SW - 10 -
17.07.2019 21:00:00 27,0 11,0 9 5 WSW - 10 -
17.07.2019 20:00:00 29,1 11,2 13 7 W 1010,5 10 -
17.07.2019 19:00:00 31,0 12,0 16 9 W - 10 -
17.07.2019 18:00:00 32,0 11,0 15 8 W - 10 -
17.07.2019 17:00:00 32,2 10,3 9 5 WSW 1010,8 10 0,0
17.07.2019 16:00:00 32,0 10,0 5 3 - - 10 -
17.07.2019 15:00:00 31,0 10,0 11 6 - - 10 -
17.07.2019 14:00:00 31,1 9,8 8 4 - 1012,3 10 -
17.07.2019 13:00:00 30,0 9,0 9 5 - - 10 -
17.07.2019 12:00:00 28,0 12,0 5 3 - - 10 -
17.07.2019 11:00:00 25,8 11,9 4 2 - 1013,8 10 0,0
17.07.2019 10:00:00 22,0 12,0 4 2 - - 10 -
17.07.2019 09:00:00 20,0 12,0 2 1 - - 10 -
17.07.2019 08:00:00 18,2 12,1 2 1 - 1014,6 10 -
17.07.2019 07:00:00 15,0 12,0 2 1 - - 10 -
17.07.2019 06:00:00 14,0 11,0 5 3 NE - 10 -
17.07.2019 05:00:00 14,1 11,5 5 3 ENE 1014,2 10 0,0
17.07.2019 04:00:00 14,0 11,0 5 3 ENE - 10 -
17.07.2019 03:00:00 16,0 11,0 5 3 ENE - 10 -
17.07.2019 02:00:00 16,3 11,4 4 2 - 1014,8 10 -
17.07.2019 01:00:00 17,0 12,0 2 1 - - 10 -
17.07.2019 00:00:00 20,0 13,0 4 2 WNW - 10 -
16.07.2019 23:00:00 20,4 11,5 9 5 ESE 1013,9 10 0,0
16.07.2019 22:00:00 22,0 12,0 4 2 E - 10 -
16.07.2019 21:00:00 24,0 11,0 9 5 ENE - 10 -
16.07.2019 20:00:00 27,1 10,4 13 7 NE 1012,8 10 -
16.07.2019 19:00:00 28,0 8,0 16 9 NE - 10 -
16.07.2019 18:00:00 29,0 9,0 13 7 NNE - 10 -
16.07.2019 17:00:00 29,3 8,4 15 8 - 1012,8 10 0,0
16.07.2019 16:00:00 29,0 12,0 15 8 NNE - 10 -
16.07.2019 15:00:00 28,0 11,0 21 11 NE - 10 -
16.07.2019 14:00:00 28,9 12,5 21 11 NNE 1013,1 10 -
16.07.2019 13:00:00 28,0 13,0 13 7 NE - 10 -
16.07.2019 12:00:00 27,0 13,0 16 9 NNE - 10 -
16.07.2019 11:00:00 26,3 13,9 13 7 E 1013,2 10 0,0
16.07.2019 10:00:00 25,0 15,0 11 6 NE - 10 -
16.07.2019 09:00:00 23,0 15,0 11 6 NNW - 10 -
16.07.2019 08:00:00 22,1 14,8 11 6 - 1012,6 10 -
16.07.2019 07:00:00 20,0 15,0 13 7 SSW - 10 -
16.07.2019 06:00:00 19,0 14,0 8 4 - - 10 -
16.07.2019 05:00:00 19,1 14,1 5 3 NNW 1011,8 10 0,0
16.07.2019 04:00:00 21,0 15,0 13 7 N - 10 -
16.07.2019 03:00:00 21,0 14,0 11 6 N - 10 -
16.07.2019 02:00:00 21,0 15,1 8 4 NNW 1011,8 10 -
16.07.2019 01:00:00 20,0 14,0 2 1 - - 10 -
16.07.2019 00:00:00 21,0 14,0 9 5 ENE - 10 -
15.07.2019 23:00:00 20,4 13,5 22 12 ENE 1011,1 10 0,0
15.07.2019 22:00:00 20,0 14,0 21 11 ENE - 10 -
15.07.2019 21:00:00 20,0 14,0 24 13 ENE - 10 -
15.07.2019 20:00:00 19,1 14,7 24 13 NE 1009,2 10 -
15.07.2019 19:00:00 19,0 15,0 8 4 - - 10 -
15.07.2019 18:00:00 19,0 15,0 11 6 ENE - 10 -
15.07.2019 17:00:00 19,9 15,1 13 7 NE 1009,5 10 0,0
15.07.2019 16:00:00 22,0 15,0 13 7 NE - 10 -
15.07.2019 15:00:00 20,0 17,0 8 4 NW - 10 -
15.07.2019 14:00:00 19,9 16,4 13 7 ESE 1009,4 10 -
15.07.2019 13:00:00 19,0 16,0 5 3 WSW - 10 -
15.07.2019 12:00:00 19,0 17,0 11 6 S - 10 -
15.07.2019 11:00:00 19,4 15,7 5 3 W 1008,5 10 0,0
15.07.2019 10:00:00 18,0 16,0 13 7 ESE - 10 -
15.07.2019 09:00:00 18,0 15,0 8 4 NNE - 10 -
15.07.2019 08:00:00 17,8 16,8 8 4 WSW 1009,1 10 -
15.07.2019 07:00:00 19,0 15,0 11 6 NNW - 10 -
15.07.2019 06:00:00 18,0 15,0 9 5 WNW - 10 -
15.07.2019 05:00:00 18,8 17,7 8 4 W 1009,0 10 0,0
15.07.2019 04:00:00 19,0 17,0 9 5 NW - 10 -
15.07.2019 03:00:00 22,0 16,0 13 7 SSW - 10 -
15.07.2019 02:00:00 23,9 13,9 9 5 ENE 1008,3 10 -
15.07.2019 01:00:00 23,0 14,0 5 3 ESE - 10 -
15.07.2019 00:00:00 25,0 14,0 5 3 E - 10 -
14.07.2019 23:00:00 25,4 13,4 11 6 E 1008,7 10 0,0
14.07.2019 22:00:00 27,0 13,0 13 7 ENE - 10 -
14.07.2019 21:00:00 28,0 13,0 15 8 NE - 10 -
14.07.2019 20:00:00 27,6 14,8 15 8 NE 1008,1 10 -
14.07.2019 19:00:00 29,0 13,0 21 11 NE - 10 -
14.07.2019 18:00:00 29,0 14,0 18 10 NE - 10 -
14.07.2019 17:00:00 30,3 8,7 16 9 NNE 1008,6 10 0,0
14.07.2019 16:00:00 32,0 8,0 8 4 SSW - 10 -
14.07.2019 15:00:00 32,0 7,0 8 4 - - 10 -
14.07.2019 14:00:00 32,1 7,8 9 5 - 1010,0 10 -
14.07.2019 13:00:00 30,0 8,0 9 5 - - 10 -
14.07.2019 12:00:00 30,0 8,0 11 6 - - 10 -
14.07.2019 11:00:00 28,7 9,7 9 5 E 1011,5 10 0,0
14.07.2019 10:00:00 26,0 13,0 4 2 - - 10 -
14.07.2019 09:00:00 23,0 14,0 2 1 - - 10 -
14.07.2019 08:00:00 20,4 14,5 4 2 - 1011,6 10 -
14.07.2019 07:00:00 18,0 14,0 2 1 - - 10 -
14.07.2019 06:00:00 16,0 13,0 4 2 - - 10 -
14.07.2019 05:00:00 17,7 13,7 2 1 - 1011,4 10 0,0
14.07.2019 04:00:00 19,0 14,0 2 1 - - 10 -
14.07.2019 03:00:00 20,0 14,0 5 3 ESE - 10 -
14.07.2019 02:00:00 21,3 15,0 8 4 WSW 1011,5 10 -
14.07.2019 01:00:00 23,0 15,0 8 4 W - 10 -
14.07.2019 00:00:00 25,0 12,0 21 11 NNE - 10 -
13.07.2019 23:00:00 24,7 11,0 8 4 - 1010,8 10 0,0
13.07.2019 22:00:00 26,0 15,0 5 3 SSE - 10 -
13.07.2019 21:00:00 27,0 14,0 8 4 NE - 10 -
13.07.2019 20:00:00 28,4 13,9 21 11 NE 1008,6 10 -
13.07.2019 19:00:00 30,0 14,0 21 11 NNE - 10 -
13.07.2019 18:00:00 31,0 14,0 18 10 NE - 10 -
13.07.2019 17:00:00 31,1 15,1 16 9 NNE 1007,9 10 0,0
13.07.2019 16:00:00 32,0 15,0 16 9 NNE - 10 -
13.07.2019 15:00:00 28,0 17,0 16 9 SW - 10 -
13.07.2019 14:00:00 28,8 16,8 11 6 NNE 1008,4 10 -
13.07.2019 13:00:00 30,0 18,0 9 5 N - 10 -
13.07.2019 12:00:00 29,0 19,0 5 3 - - 10 -
13.07.2019 11:00:00 28,3 19,5 4 2 - 1009,2 10 0,0
13.07.2019 10:00:00 26,0 20,0 4 2 - - 10 -
13.07.2019 09:00:00 24,0 20,0 4 2 - - 10 -
13.07.2019 08:00:00 23,2 19,9 2 1 - 1009,5 10 -
13.07.2019 07:00:00 22,0 20,0 5 3 SSW - 10 -
13.07.2019 06:00:00 22,0 19,0 5 3 SE - 10 -
13.07.2019 05:00:00 21,3 19,8 4 2 WNW 1009,7 10 0,0
13.07.2019 04:00:00 22,0 20,0 2 1 - - 10 -
13.07.2019 03:00:00 22,0 20,0 4 2 - - 10 -
13.07.2019 02:00:00 22,6 19,9 2 1 - 1010,7 10 -
13.07.2019 01:00:00 23,0 20,0 2 1 - - 10 -
13.07.2019 00:00:00 24,0 20,0 8 4 SSW - 10 -
12.07.2019 23:00:00 24,9 20,0 8 4 WSW 1011,0 10 0,0
12.07.2019 22:00:00 26,0 20,0 15 8 SW - 10 -
12.07.2019 21:00:00 28,0 19,0 11 6 WSW - 10 -
12.07.2019 20:00:00 28,5 19,3 13 7 WSW 1009,8 10 -
12.07.2019 19:00:00 30,0 20,0 18 10 WNW - 10 -
12.07.2019 18:00:00 30,0 19,0 16 9 WNW - 10 -
12.07.2019 17:00:00 30,7 18,7 21 11 W 1009,8 10 0,0
12.07.2019 16:00:00 31,0 17,0 9 5 W - 10 -
12.07.2019 15:00:00 32,0 16,0 9 5 - - 10 -
12.07.2019 14:00:00 31,6 15,5 9 5 - 1010,7 10 -
12.07.2019 13:00:00 29,0 16,0 9 5 ESE - 10 -
12.07.2019 12:00:00 29,0 15,0 8 4 S - 10 -
12.07.2019 11:00:00 28,5 15,6 5 3 SW 1012,1 10 0,0
12.07.2019 10:00:00 26,0 17,0 5 3 SE - 10 -
12.07.2019 09:00:00 23,0 16,0 2 1 - - 10 -
12.07.2019 08:00:00 22,1 15,8 5 3 ESE 1012,6 10 -
12.07.2019 07:00:00 20,0 16,0 2 1 - - 10 -

tt = temperature
td = dewpoint
ff = wind speed
dd = wind direction
ppp = reduced air pressure
vv = visibility
rr = precipitation

Next stations